Vertical_Velocity
-1 -0 -0 -0 -0 -1 -1 -1 1 -0 0 0 1 -1 -1 -1 -0 -5 -2 3 -5 -0 1 7 -0 1 3 6 1 -4 2 2 -1 0 -11 1 2 -3 -4 2 -2 -0 0 4 -5
-0 -1 -1 -1 -1 -1 -2 -2 -1 -1 -0 -0 -1 -1 -1 -0 -1 -4 3 -2 -4 -3 3 2 -3 6 7 14 3 5 7 1 -4 -2 -4 -2 2 -5 -2 0 -3 2 1 -3 1
1 -0 -1 -1 -1 -1 -1 -1 -1 -0 -1 0 -1 -0 -0 -1 -1 2 -2 1 -1 -1 6 -1 2 5 -0 -0 9 9 -0 -2 6 -4 -3 0 0 -4 3 0 -6 -2 3 2 -1
0 0 -1 -1 -0 -1 -1 -1 -0 0 -0 1 0 -0 0 -0 -2 3 3 0 0 -1 1 -2 7 -4 5 10 -3 -1 3 3 -6 -5 -1 -4 7 3 0 0 3 -9 -11 -7 -5
-1 -1 -0 -0 -0 -0 -1 -1 0 1 -0 1 0 -0 -1 -0 -3 0 -5 -1 -1 -2 1 5 4 -3 -1 -13 -2 3 1 3 -1 -2 3 -3 1 4 -1 4 1 -10 -0 -3 -0
-1 -1 -1 -1 -1 -0 -1 -1 -1 0 0 1 0 -2 -2 -1 -4 -4 -7 -2 -0 1 4 4 2 3 6 -6 23 8 5 2 1 -2 0 -5 1 3 -0 -6 -3 -7 -8 2 -4
-1 -1 -0 -2 -1 -0 -0 -1 -1 -0 0 1 -0 -1 -1 -0 -1 -1 2 2 1 3 5 6 -0 -5 1 8 7 -4 6 2 5 -5 -8 7 -6 4 -5 -1 -2 0 -1 -7 -1
-1 -0 -0 -1 -1 -0 -2 -1 -0 -1 -0 0 1 1 0 -3 2 3 0 -2 -0 3 0 4 2 -1 -7 15 3 4 1 2 4 0 -9 -2 1 -5 -3 0 0 -0 5 19 8
-1 -1 -1 -1 -0 -1 -1 -2 -1 -1 -1 -1 1 -0 -0 -0 3 -0 -2 -3 3 1 2 7 3 1 -10 -2 -4 -2 -4 1 2 4 1 4 3 -5 1 -1 1 1 -13 0 -38
-0 -1 -1 -1 0 -1 -2 -1 0 -1 -1 -0 -0 -2 1 1 -0 1 -2 -0 -2 5 -0 5 -3 -7 2 0 -11 -2 7 -5 -1 3 6 -1 4 7 4 5 -0 1 -2 -10 1
-1 -1 -0 -1 1 -0 -1 -2 -2 -4 -1 -0 -0 -2 1 -0 -4 1 2 -2 -4 -1 3 1 -3 1 2 1 2 2 -5 -3 -2 9 3 -0 7 2 6 7 -2 -1 3 6 0
-2 -1 -1 -2 1 0 0 -4 -3 -4 -3 -1 -0 -1 1 -3 -2 -1 3 1 -4 -7 3 -0 -4 -1 0 1 -4 -5 -2 -2 3 -3 -0 3 -4 19 1 0 5 -1 5 6 3
-2 -2 -1 -2 -0 1 -2 -4 -3 -1 -3 3 1 3 1 -1 2 3 -1 2 -5 -4 3 -2 -3 -6 2 11 3 -2 0 2 4 1 -6 2 -11 1 4 -1 -1 -2 3 -2 6
-1 -1 -0 -2 0 1 -0 -4 -2 0 -5 1 1 5 -3 -1 -1 -0 6 1 3 -5 2 -9 7 -4 -3 0 6 -0 13 15 -2 1 -12 8 -10 -5 -5 -0 6 4 4 2 1
-2 -0 -2 -1 0 -0 -0 -1 -1 2 -3 3 3 -5 2 -4 -1 0 1 -3 -0 -4 2 -8 0 -3 1 -4 3 -12 3 6 -1 -5 3 1 0 -2 -4 4 -6 -2 -1 2 -8
-2 -1 -1 1 -1 0 0 -2 0 0 -7 2 3 -1 -1 -1 -0 2 -3 3 5 -2 -2 -2 4 3 -8 -0 10 -6 -5 -15 -3 0 -2 2 1 -1 0 -8 -7 -6 8 -1 -7
-3 -2 0 -1 -3 -2 -0 1 0 -2 3 5 5 6 7 2 4 1 2 0 -2 6 -3 3 -0 -5 2 1 2 -0 4 -4 -2 -1 -6 1 2 9 0 -2 -7 -5 4 5 0
-5 -1 3 -3 1 -1 -0 2 0 1 2 -1 -9 -1 -0 5 5 1 3 -0 1 1 2 6 -10 -1 -4 -9 11 -4 -8 -4 -4 -2 -2 2 -4 -1 -0 4 -5 -10 -7 -8 -4
-3 -1 -0 0 0 -1 -1 -1 -0 3 1 0 4 4 1 7 3 6 2 -3 -6 -0 -6 5 -13 1 -3 16 11 9 -4 20 1 -1 2 -1 -6 -3 -9 -2 9 -2 -3 -1 -7
1 -0 1 1 0 -0 1 -2 -1 1 2 2 -1 2 -0 -3 1 8 3 -2 -14 -7 5 -6 -5 -5 -0 10 2 1 5 -3 2 -3 -0 -1 -5 -12 0 -3 2 2 -10 -7 -1
2 -0 5 2 2 -0 -3 -4 2 9 1 2 -1 1 0 4 6 -2 -14 -7 -1 5 10 -1 8 -13 -0 -5 -5 9 -1 -0 8 0 -9 -2 -16 -1 -3 6 -4 1 -12 -8 -2
3 3 2 3 3 1 -1 3 3 -3 1 -7 1 5 4 -4 -1 1 2 3 14 15 3 5 3 -7 -9 7 2 4 -7 15 10 -9 1 3 -30 -4 0 -4 10 1 2 -2 -1
2 2 3 2 0 1 2 0 -3 4 4 4 -3 3 6 -2 1 3 -0 12 -2 -5 -26 1 -15 -1 -9 7 -7 -3 -1 -0 9 8 -6 -2 -18 -2 -11 -8 4 -10 -1 -0 -2
5 0 2 0 0 0 -2 3 4 4 4 3 0 1 5 -0 3 2 -7 3 -5 -3 2 11 3 -10 -19 -13 1 -2 6 10 3 6 -2 -14 -3 -12 -3 -10 -4 -5 -2 -2 -3
3 -3 -4 -1 -0 -1 -1 2 -2 2 1 5 9 1 0 1 4 3 1 2 -0 -8 -1 12 -7 7 2 11 7 -0 -8 6 -4 6 0 -5 -8 -14 0 -10 -3 -1 3 4 2
-0 -0 -0 -1 -4 6 1 2 2 2 3 -2 3 3 -0 -1 0 -5 -5 -5 -1 1 7 4 -2 5 7 11 -1 -1 4 -1 -0 -3 -0 0 -10 -5 12 2 -7 -4 1 -3 2
1 2 2 -4 1 4 1 -1 0 3 1 0 -1 -0 1 -2 -1 -4 -4 -2 -1 -3 0 -2 5 9 -1 -5 2 -7 -3 1 -3 4 3 -3 0 -4 -3 -4 -7 -6 -2 5 2
Height
3160 3160 3160 3160 3160 3161 3161 3161 3161 3159 3157 3155 3154 3154 3156 3158 3162 3166 3169 3173 3174 3177 3178 3179 3180 3181 3181 3180 3181 3179 3179 3178 3178 3177 3176 3177 3177 3176 3175 3174 3173 3172 3173 3175 3174
3158 3158 3158 3158 3159 3159 3159 3159 3159 3158 3157 3155 3154 3154 3155 3157 3161 3166 3170 3171 3174 3177 3178 3180 3181 3181 3181 3180 3178 3179 3180 3179 3178 3178 3177 3177 3177 3176 3175 3174 3173 3173 3173 3175 3176
3156 3156 3156 3156 3156 3157 3157 3158 3158 3157 3156 3155 3154 3154 3155 3157 3161 3165 3168 3171 3174 3177 3178 3181 3181 3181 3180 3177 3178 3179 3179 3179 3179 3178 3177 3177 3176 3176 3175 3175 3174 3174 3174 3175 3176
3154 3155 3155 3155 3155 3155 3155 3156 3156 3156 3155 3154 3154 3155 3156 3158 3162 3164 3167 3170 3173 3176 3179 3181 3183 3181 3179 3179 3181 3180 3180 3181 3181 3181 3180 3179 3178 3178 3177 3176 3175 3174 3174 3175 3176
3153 3153 3153 3153 3153 3153 3154 3154 3154 3154 3154 3154 3155 3155 3157 3159 3160 3162 3165 3168 3172 3176 3179 3182 3182 3180 3180 3181 3182 3181 3181 3182 3182 3182 3181 3180 3180 3180 3179 3178 3177 3176 3176 3177 3177
3151 3151 3151 3151 3151 3151 3152 3152 3152 3153 3153 3153 3155 3156 3157 3159 3159 3160 3164 3167 3173 3176 3180 3183 3182 3181 3178 3178 3182 3181 3182 3182 3183 3182 3181 3181 3180 3180 3180 3179 3179 3175 3176 3177 3176
3149 3149 3149 3149 3149 3149 3150 3150 3151 3151 3151 3152 3154 3155 3157 3159 3158 3159 3164 3168 3172 3176 3180 3182 3182 3182 3180 3181 3183 3183 3183 3183 3183 3182 3181 3181 3180 3180 3180 3179 3179 3180 3179 3178 3177
3147 3147 3147 3148 3148 3148 3148 3148 3149 3149 3150 3151 3153 3155 3157 3157 3159 3159 3162 3167 3172 3176 3180 3182 3183 3184 3183 3186 3187 3187 3186 3184 3184 3183 3181 3181 3180 3180 3179 3179 3180 3181 3184 3184 3181
3145 3145 3146 3146 3146 3146 3146 3146 3147 3148 3148 3150 3152 3154 3156 3158 3159 3161 3163 3168 3172 3176 3179 3181 3182 3183 3184 3184 3187 3187 3186 3185 3184 3183 3182 3181 3180 3178 3178 3178 3179 3182 3181 3182 3180
3144 3144 3144 3145 3145 3145 3145 3145 3146 3146 3147 3149 3151 3155 3155 3157 3157 3161 3165 3168 3172 3175 3178 3180 3181 3183 3184 3184 3185 3186 3185 3185 3184 3184 3181 3180 3180 3180 3180 3179 3179 3180 3180 3181 3179
3142 3142 3142 3143 3144 3143 3144 3144 3147 3147 3146 3148 3149 3149 3151 3154 3155 3159 3164 3168 3170 3173 3177 3179 3180 3182 3183 3183 3184 3184 3184 3183 3183 3184 3182 3180 3179 3177 3180 3180 3178 3178 3178 3180 3178
3141 3141 3140 3141 3142 3142 3141 3141 3144 3145 3147 3147 3148 3150 3151 3152 3154 3158 3162 3167 3169 3173 3175 3179 3179 3182 3182 3182 3183 3184 3184 3183 3183 3182 3182 3180 3178 3179 3178 3179 3178 3177 3178 3180 3180
3138 3139 3139 3139 3140 3141 3140 3142 3143 3144 3145 3146 3145 3149 3151 3153 3154 3156 3160 3164 3169 3172 3175 3176 3179 3180 3180 3182 3182 3182 3183 3183 3183 3182 3180 3177 3176 3177 3177 3175 3175 3174 3175 3177 3178
3135 3136 3137 3137 3140 3138 3140 3141 3143 3145 3145 3144 3143 3147 3149 3151 3154 3155 3159 3165 3167 3171 3174 3175 3177 3179 3179 3180 3181 3181 3182 3182 3180 3179 3177 3176 3176 3174 3175 3175 3174 3173 3173 3175 3176
3133 3133 3134 3135 3136 3136 3140 3141 3143 3145 3145 3144 3142 3143 3147 3151 3153 3155 3159 3162 3165 3169 3172 3174 3175 3177 3178 3179 3180 3180 3180 3179 3178 3178 3176 3175 3178 3172 3172 3171 3171 3171 3173 3175 3175
3130 3130 3132 3133 3133 3135 3138 3140 3143 3146 3141 3141 3142 3142 3145 3148 3151 3154 3157 3161 3165 3167 3168 3170 3173 3174 3177 3178 3179 3179 3179 3180 3178 3177 3181 3175 3176 3173 3173 3172 3169 3168 3169 3171 3173
3126 3127 3129 3130 3131 3134 3137 3140 3143 3141 3141 3142 3141 3142 3143 3145 3150 3152 3155 3158 3161 3164 3165 3167 3169 3172 3175 3177 3177 3179 3178 3179 3179 3179 3176 3173 3175 3171 3168 3166 3166 3168 3170 3170 3171
3123 3124 3126 3127 3129 3132 3135 3139 3139 3137 3138 3139 3138 3141 3143 3145 3147 3150 3152 3155 3158 3161 3163 3164 3166 3169 3172 3174 3176 3177 3180 3177 3178 3179 3173 3173 3172 3169 3167 3165 3163 3165 3167 3169 3171
3119 3121 3122 3125 3126 3129 3133 3134 3133 3136 3137 3136 3137 3139 3141 3143 3146 3147 3149 3153 3155 3158 3161 3162 3162 3167 3169 3171 3175 3174 3174 3174 3170 3173 3172 3172 3170 3168 3165 3165 3163 3163 3166 3169 3169
3117 3118 3120 3122 3124 3127 3130 3131 3133 3135 3136 3137 3136 3138 3140 3142 3145 3146 3148 3149 3152 3154 3158 3159 3160 3162 3165 3167 3169 3170 3170 3169 3168 3173 3174 3171 3170 3165 3166 3165 3163 3161 3165 3167 3168
3115 3117 3119 3120 3123 3126 3126 3129 3131 3134 3135 3136 3136 3137 3139 3140 3142 3144 3146 3148 3149 3151 3155 3155 3159 3157 3159 3161 3164 3166 3164 3164 3165 3166 3166 3171 3166 3161 3164 3164 3161 3160 3163 3164 3166
3114 3116 3118 3119 3123 3124 3126 3128 3129 3131 3133 3133 3134 3136 3137 3138 3140 3141 3142 3143 3145 3147 3148 3149 3153 3153 3154 3157 3158 3159 3159 3159 3159 3161 3160 3160 3161 3160 3161 3162 3160 3160 3162 3163 3166
3112 3114 3116 3118 3120 3122 3124 3125 3126 3129 3130 3132 3132 3134 3136 3137 3139 3138 3138 3140 3138 3139 3141 3145 3147 3149 3149 3153 3154 3154 3154 3150 3150 3153 3155 3156 3157 3157 3159 3158 3157 3158 3159 3161 3164
3111 3113 3115 3116 3118 3119 3121 3123 3125 3126 3127 3128 3131 3132 3133 3134 3135 3135 3135 3135 3134 3134 3135 3139 3142 3144 3146 3146 3149 3151 3150 3150 3150 3150 3150 3151 3152 3153 3153 3154 3152 3154 3155 3158 3161
3108 3110 3112 3114 3116 3117 3119 3121 3121 3122 3124 3126 3127 3128 3129 3131 3132 3132 3132 3132 3133 3131 3130 3133 3135 3138 3141 3143 3144 3144 3145 3146 3147 3147 3147 3146 3147 3146 3146 3148 3149 3152 3152 3154 3157
3106 3109 3111 3112 3114 3116 3118 3119 3119 3120 3121 3123 3124 3125 3125 3127 3129 3129 3130 3130 3130 3132 3132 3131 3131 3134 3138 3139 3140 3141 3142 3142 3142 3142 3142 3141 3141 3141 3143 3145 3147 3148 3150 3153 3155
3104 3106 3109 3111 3113 3115 3116 3117 3117 3119 3119 3121 3123 3124 3125 3127 3128 3128 3129 3129 3129 3129 3130 3130 3131 3131 3132 3134 3135 3138 3138 3138 3138 3139 3140 3138 3138 3137 3139 3142 3143 3144 3149 3152 3156